Wind_Speed
16 15 14 12 13 13 13 12 12 12 12 13 14 14 15 16 16 17 19 20 18 19 19 19 21 21 14 13 13 12 12 12 11 23 25 28 30 35 37 36 31 28 27
16 17 15 14 15 14 14 12 12 13 13 13 12 13 13 14 16 17 18 19 18 17 19 18 20 20 16 15 14 13 14 14 16 18 20 28 29 32 32 32 35 30 25
17 18 17 16 16 15 14 13 13 13 13 12 12 12 13 12 14 16 16 18 19 17 16 19 18 20 20 17 15 14 14 16 16 13 17 21 24 31 31 30 30 31 22
18 19 19 18 17 16 14 12 12 12 13 11 11 11 12 12 12 13 14 16 18 18 16 15 16 20 19 19 15 16 16 15 16 15 16 20 24 29 24 31 33 32 22
19 20 20 19 17 16 14 12 11 10 12 11 11 10 10 11 9 10 12 12 15 17 18 17 15 16 17 15 15 18 17 16 16 17 18 20 24 32 31 28 26 30 16
21 21 21 19 18 16 14 12 11 10 10 9 11 11 11 11 8 8 9 12 13 16 18 17 18 18 20 17 15 15 16 20 18 18 17 20 23 26 30 26 26 26 7
23 22 21 19 17 18 16 13 11 10 8 8 9 10 12 10 7 7 8 9 10 12 16 19 17 19 21 19 18 18 18 17 19 17 18 20 20 25 27 24 27 23 13
24 22 21 19 19 20 18 16 13 10 7 5 6 6 8 10 7 5 5 7 8 9 12 17 16 19 19 20 19 20 21 21 20 18 19 20 18 22 23 17 21 21 9
24 22 22 21 21 21 21 19 15 12 10 6 4 3 5 8 8 6 3 6 6 9 9 13 16 17 17 18 21 22 21 22 19 18 18 18 19 19 22 23 28 25 14
26 24 22 23 22 22 20 19 17 13 11 8 4 2 2 4 7 7 5 4 6 6 8 10 13 13 15 17 19 20 21 21 22 22 23 23 24 25 26 27 24 20 20
25 24 23 22 21 19 19 18 16 16 13 10 6 3 0 2 4 6 6 5 5 7 8 10 11 12 12 13 14 17 16 16 19 21 24 26 28 29 28 26 23 19 17
26 25 23 22 20 19 19 17 17 17 15 12 8 5 3 1 1 3 4 5 5 7 8 8 8 10 10 11 12 13 14 16 18 21 25 28 29 30 29 25 23 19 14
26 25 24 22 20 18 19 19 18 16 15 13 11 8 5 3 3 4 3 2 3 5 5 5 6 8 9 8 10 11 14 17 20 23 23 23 22 23 24 27 25 23 17
27 25 23 22 20 18 17 17 17 17 16 15 13 11 7 5 7 5 2 2 1 2 3 4 5 7 9 9 9 11 13 16 19 19 19 19 21 22 24 24 26 28 25
27 25 22 20 19 18 17 17 17 15 15 14 13 10 9 8 7 4 2 1 1 1 2 3 3 4 6 9 8 9 10 12 16 18 19 20 22 24 25 23 21 19 17
26 25 24 22 19 18 17 17 15 13 13 11 9 9 8 6 7 4 4 5 6 5 4 4 4 4 3 4 6 7 8 8 10 12 15 16 18 20 23 25 24 20 17
28 27 26 25 24 22 21 20 20 16 13 13 12 11 12 10 10 8 8 10 8 10 8 7 6 6 5 4 3 4 6 7 6 7 9 12 14 15 18 20 22 23 24
28 27 27 27 27 27 25 23 21 19 19 16 15 16 15 14 13 12 10 10 14 14 12 10 9 7 7 7 6 6 5 6 7 8 9 10 12 13 15 16 18 19 20
28 27 25 24 25 24 24 22 22 21 20 18 14 14 15 16 18 16 14 17 17 18 15 13 11 10 9 9 8 8 9 9 11 12 13 13 13 14 15 15 16 18 19
26 26 24 23 23 24 23 23 22 22 22 20 18 17 16 15 17 20 21 21 19 17 16 14 12 11 11 10 10 11 12 13 14 15 16 17 18 18 19 19 18 17 18
26 25 24 24 23 23 24 25 25 23 22 20 19 16 15 17 19 20 22 21 18 17 16 15 13 13 12 12 13 14 16 18 19 20 21 21 22 23 22 23 22 19 18
23 24 25 26 25 25 26 25 24 23 21 20 19 18 18 18 20 20 19 18 16 15 14 14 14 14 14 15 16 18 20 23 25 27 28 28 29 29 29 28 26 23 19
23 23 24 25 24 24 23 23 23 22 21 20 19 18 18 19 20 21 20 17 15 14 12 13 14 15 15 16 19 22 24 26 27 28 28 28 27 26 26 26 26 22 19
23 24 23 23 23 23 22 22 21 21 20 21 20 19 21 22 21 21 18 15 13 12 12 13 15 17 19 21 23 23 23 22 21 20 19 20 21 22 23 23 23 21 20
22 22 22 22 22 22 22 20 19 18 18 19 20 20 21 21 22 19 15 12 12 12 13 15 16 17 17 17 17 18 19 20 21 22 24 25 26 25 24 23 22 21 20
20 21 21 21 20 19 19 20 20 19 20 20 19 18 18 20 18 14 12 12 12 13 13 13 13 13 14 16 19 22 24 24 23 22 21 20 20 20 19 18 18 18 17
Wind_Direction
154 151 142 132 130 119 109 105 79 81 88 84 77 74 68 59 56 55 50 49 51 49 47 36 30 21 27 16 11 10 3 351 329 321 330 338 346 347 350 3 8 3 360
160 156 145 138 132 121 117 107 84 85 96 91 84 79 71 62 56 55 54 50 48 45 43 32 25 22 29 18 10 9 3 354 338 330 335 342 347 352 349 357 6 8 1
168 160 151 145 142 128 120 115 94 89 97 98 92 85 77 71 63 58 57 54 50 48 43 40 25 21 24 20 17 14 3 357 352 340 332 341 348 356 354 359 360 10 358
171 166 161 154 147 136 123 121 109 91 94 98 96 86 77 71 64 59 60 58 55 50 44 41 26 23 19 20 18 18 7 3 358 355 353 348 357 357 2 359 353 357 352
167 167 165 161 151 146 133 129 122 105 96 93 91 89 83 67 65 58 58 57 52 49 46 42 35 25 24 26 21 20 18 14 11 7 5 3 2 1 3 347 349 345 354
167 168 165 162 166 157 152 144 137 123 104 94 89 85 85 77 74 62 54 54 54 46 41 38 38 28 23 30 31 31 31 24 20 16 8 7 2 1 353 350 352 354 351
174 172 170 172 173 173 168 161 161 148 123 103 93 87 77 71 73 70 55 58 59 54 44 33 35 32 18 27 37 38 38 36 35 22 17 11 3 1 354 351 351 351 336
180 179 180 183 182 178 177 178 176 171 157 133 103 87 80 65 57 70 59 59 55 52 47 32 28 30 24 15 27 35 36 34 29 24 22 15 12 10 5 356 349 347 360
182 182 182 183 180 179 184 188 189 179 175 161 132 93 66 63 46 45 49 35 30 30 37 41 18 28 19 15 22 25 27 30 35 34 32 27 24 21 17 18 11 10 357
186 184 184 185 185 184 186 190 193 193 186 180 171 132 59 56 48 38 40 39 27 27 24 32 28 25 21 21 23 22 22 17 20 23 28 32 31 31 30 32 16 11 3
183 184 186 188 189 190 190 193 194 193 196 195 200 197 16 36 56 47 40 47 52 44 41 38 35 25 29 28 29 29 23 20 25 26 25 24 24 25 25 26 25 19 7
184 185 187 189 191 191 193 192 194 197 198 200 205 218 246 304 129 106 63 63 56 50 52 37 37 31 34 33 36 33 35 33 32 32 29 24 19 16 15 18 19 20 25
184 187 188 189 192 193 194 195 195 201 207 210 216 228 243 236 157 136 133 98 41 41 49 45 31 29 34 45 41 37 36 36 36 37 31 25 20 14 11 12 14 9 18
184 186 188 192 192 196 199 205 209 211 216 221 223 228 224 196 162 152 127 159 97 21 15 19 30 35 39 44 47 46 44 43 41 37 31 27 23 20 18 15 9 5 2
189 187 189 194 200 202 209 215 219 227 231 232 231 220 209 195 173 157 125 133 267 339 352 347 359 20 33 41 43 44 41 41 40 34 30 26 23 21 21 17 13 6 2
191 195 197 197 200 205 208 208 210 210 214 216 212 213 209 204 203 197 203 226 235 254 275 302 311 318 342 11 28 37 37 37 35 31 29 27 25 21 19 18 15 8 354
201 204 207 206 206 205 204 206 201 205 213 224 229 232 230 233 232 231 235 246 231 249 265 278 282 281 287 296 320 356 16 21 10 5 7 13 14 16 15 14 12 9 359
212 216 215 213 211 210 211 212 214 217 221 229 235 233 236 235 235 237 244 273 225 246 261 267 276 279 281 279 283 295 321 335 340 340 336 340 346 349 352 357 359 359 355
216 217 218 217 213 214 214 218 221 226 232 240 243 233 235 239 239 243 247 248 259 260 261 263 271 273 279 279 281 284 294 303 310 314 319 322 324 323 325 329 335 343 348
214 218 213 213 216 219 223 225 228 232 237 241 240 242 241 243 231 233 242 247 257 260 259 260 265 270 275 276 278 282 285 290 297 302 310 313 314 311 310 312 315 321 330
215 217 218 217 221 224 226 229 230 232 237 244 243 246 243 255 244 245 248 246 256 260 255 258 264 267 271 277 280 285 289 295 298 300 302 306 308 304 306 303 300 300 310
218 218 218 221 226 230 231 232 234 239 244 243 250 250 251 253 245 248 247 246 256 260 259 260 265 271 275 280 288 291 293 294 297 299 300 299 299 300 302 302 301 294 296
221 222 224 226 229 231 232 237 241 242 243 245 255 251 250 245 246 248 244 251 255 259 259 262 268 274 281 286 289 292 294 295 298 299 301 302 303 304 305 305 305 297 289
226 227 227 228 230 235 239 241 241 243 248 253 254 254 251 244 253 248 243 247 249 255 259 264 269 275 281 285 288 292 296 297 303 306 304 305 306 307 307 305 304 300 295
227 229 230 232 237 242 245 244 242 245 252 253 254 255 253 248 252 243 240 235 240 247 256 264 272 278 283 289 293 297 300 302 302 300 299 299 300 301 302 301 301 301 299
230 232 235 238 241 244 244 242 243 248 255 257 258 258 255 257 248 232 222 229 237 246 255 262 270 281 291 297 299 301 303 304 305 305 305 306 306 307 308 306 305 302 300
Height
826 829 829 831 833 832 832 833 832 831 831 831 831 831 830 830 828 826 824 822 821 820 819 818 816 814 811 810 809 807 805 803 799 788 783 775 769 761 752 745 738 732 729
825 826 829 832 833 833 833 834 834 833 833 832 833 832 832 831 830 828 827 826 824 822 821 819 818 816 813 812 810 808 805 802 799 791 784 777 771 764 755 747 740 735 732
826 826 829 831 833 834 834 835 835 835 834 834 835 835 833 833 832 830 830 829 827 826 825 823 822 819 815 813 811 808 805 802 798 795 789 783 776 767 757 750 744 738 735
824 825 828 831 832 834 834 836 837 837 836 837 837 836 835 834 833 833 832 832 830 829 827 825 824 821 818 814 811 808 805 802 798 794 790 783 776 769 763 754 744 740 736
821 824 828 831 832 833 834 836 838 838 838 839 838 837 836 835 835 835 834 833 832 831 829 827 826 824 820 817 813 809 806 803 799 795 790 785 778 769 764 763 757 746 738
819 823 826 829 832 832 834 836 838 839 840 840 839 839 838 837 837 836 836 835 834 833 831 829 827 824 821 817 814 811 809 805 802 799 795 791 785 781 774 769 763 752 744
817 821 824 827 830 831 833 835 838 839 840 841 841 841 839 839 839 838 837 836 836 835 833 831 829 826 822 818 815 812 808 806 804 802 799 796 790 786 780 772 767 762 756
815 818 821 824 827 829 831 834 837 839 841 842 842 842 841 841 840 839 838 838 837 836 835 833 831 828 825 820 816 812 810 807 805 802 800 797 794 790 785 779 773 765 757
811 815 818 822 825 827 829 832 835 838 840 841 842 843 842 841 841 840 839 839 838 837 835 834 832 829 826 822 816 813 811 808 806 803 800 797 793 790 785 778 772 766 759
807 812 816 820 823 825 828 832 834 837 840 841 842 842 843 842 842 841 840 839 838 837 836 834 833 830 828 824 819 816 812 810 806 802 799 796 793 789 784 781 778 774 771
805 810 815 819 822 825 828 831 834 837 839 840 841 842 842 842 842 842 840 839 839 838 836 835 833 831 829 825 822 819 816 813 808 804 800 797 793 789 786 783 781 779 777
803 809 813 817 820 824 828 831 833 836 837 839 840 841 841 841 841 841 841 840 839 838 837 836 834 832 829 827 824 822 818 814 811 807 803 799 795 791 789 786 783 781 778
802 807 811 815 818 822 825 829 832 834 836 837 838 839 839 839 840 840 841 841 840 840 839 838 835 833 831 828 827 824 820 817 813 810 808 805 802 798 794 788 785 781 778
800 805 810 813 817 821 824 828 830 832 834 835 836 837 837 838 839 840 840 840 840 840 839 838 836 834 832 830 827 825 822 819 816 814 812 809 806 802 797 793 787 782 777
798 802 807 812 815 819 822 825 827 829 830 831 832 834 835 836 837 838 839 839 839 838 837 836 835 834 832 830 828 826 824 821 819 817 814 811 808 804 800 797 794 789 786
795 799 802 807 812 816 819 822 824 825 827 829 830 832 833 834 835 836 837 837 837 836 836 835 834 832 831 829 828 826 824 822 820 819 817 814 811 807 803 800 796 793 789
790 795 798 802 807 810 814 817 819 823 824 826 827 828 829 831 832 833 834 834 834 834 833 833 832 831 829 828 827 825 823 821 820 818 817 814 812 809 805 802 798 794 789
786 790 794 797 800 805 808 811 815 817 819 821 822 824 825 827 828 829 831 830 830 829 829 829 828 828 827 826 825 823 822 820 819 817 815 813 810 808 805 802 799 795 791
782 786 789 794 798 801 804 807 810 812 814 816 818 819 820 822 824 825 825 825 824 825 825 825 824 824 823 822 821 820 819 818 816 814 812 810 808 805 803 800 797 794 790
778 782 786 790 794 798 801 803 805 807 809 810 812 813 815 817 817 818 818 819 819 819 820 820 820 820 819 818 817 816 815 813 812 810 808 806 804 801 798 795 793 789 786
774 778 782 786 789 792 795 796 798 801 803 804 806 808 809 810 810 811 812 813 813 814 814 815 815 815 814 814 813 812 811 809 807 805 803 801 799 796 793 790 787 784 781
769 773 777 780 784 786 788 791 793 795 797 798 800 802 803 803 804 805 806 807 808 808 809 810 810 810 810 809 808 807 806 804 801 799 797 794 792 789 786 783 781 778 776
765 769 772 775 778 781 783 785 787 789 791 792 794 795 796 797 798 799 800 802 803 803 804 805 805 805 805 805 804 802 799 797 795 792 789 787 784 782 779 776 774 771 770
762 764 767 770 773 776 778 780 781 783 785 786 787 788 789 790 792 793 794 796 798 799 800 800 800 800 799 798 797 795 793 790 788 786 784 781 778 776 773 770 768 766 765
757 760 763 765 768 770 772 774 775 777 778 779 780 781 782 784 785 787 789 791 793 794 795 795 795 794 793 792 791 789 787 785 783 781 778 775 772 769 767 764 763 761 759
753 755 758 760 762 764 766 768 770 771 773 774 775 775 777 778 779 782 785 787 788 789 790 790 789 789 788 786 785 783 781 779 776 774 771 769 766 763 761 759 757 756 754